timestamp,surface_pressure_avg,surface_temp_avg,battery_voltage,lat,long
2022-01-19 00:09:01+00:00,305.5831,2.89,12.65,47.84626,-54.09684
2022-01-19 00:19:00+00:00,311.58799999999997,2.9,12.65,47.84626,-54.09684
2022-01-19 00:29:00+00:00,316.538,2.9,12.65,47.84626,-54.09684
2022-01-19 00:39:00+00:00,308.5514,2.89,12.65,47.84626,-54.09684
2022-01-19 00:49:00+00:00,303.428,2.9,12.65,47.84626,-54.09684
2022-01-19 00:59:00+00:00,309.3796,2.9,12.65,47.84626,-54.09684
2022-01-19 01:09:00+00:00,310.868,2.9,12.65,47.84626,-54.09684
2022-01-19 01:19:00+00:00,297.813,2.9,12.65,47.84626,-54.09684
2022-01-19 01:29:00+00:00,296.7813,2.88,12.65,47.84626,-54.09684
2022-01-19 01:39:00+00:00,310.7497,2.89,12.65,47.84626,-54.09684
2022-01-19 01:49:00+00:00,309.8813,2.88,12.65,47.84626,-54.09684
2022-01-19 01:59:00+00:00,283.9197,2.83,12.65,47.84626,-54.09684
2022-01-19 02:09:00+00:00,279.1981,2.8,12.65,47.84626,-54.09684
2022-01-19 02:19:00+00:00,295.95799999999997,2.8,12.65,47.84626,-54.09684
2022-01-19 02:29:00+00:00,293.3463,2.8,12.65,47.84626,-54.09684
2022-01-19 02:39:00+00:00,272.0697,2.8,12.65,47.84626,-54.09684
2022-01-19 02:49:00+00:00,272.593,2.7,12.65,47.84626,-54.09684
2022-01-19 02:59:00+00:00,280.4913,2.79,12.65,47.84626,-54.09684
2022-01-19 03:09:00+00:00,266.5681,2.7,12.65,47.84626,-54.09684
2022-01-19 03:19:01+00:00,251.1948,2.7,12.65,47.84626,-54.09684
2022-01-19 03:29:01+00:00,250.8614,2.76,12.65,47.84626,-54.09684
2022-01-19 03:39:01+00:00,239.1048,2.78,12.65,47.84626,-54.09684
2022-01-19 03:49:01+00:00,223.8914,2.6,12.65,47.84626,-54.09684
2022-01-19 03:59:01+00:00,224.3715,2.5,12.65,47.84626,-54.09684
2022-01-19 04:09:01+00:00,216.3614,2.5,12.65,47.84626,-54.09684
2022-01-19 04:19:00+00:00,194.9781,2.44,12.57,47.84626,-54.09684
2022-01-19 04:29:00+00:00,187.9565,2.47,12.57,47.84626,-54.09684
2022-01-19 04:39:00+00:00,196.6081,2.5,12.57,47.84626,-54.09684
2022-01-19 04:49:00+00:00,192.6848,2.5,12.57,47.84626,-54.09684
2022-01-19 04:59:00+00:00,180.8348,2.4,12.57,47.84626,-54.09684
2022-01-19 05:09:00+00:00,182.6631,2.47,12.57,47.84626,-54.09684
2022-01-19 05:19:00+00:00,175.7231,2.49,12.57,47.84626,-54.09684
2022-01-19 05:29:00+00:00,162.8432,2.4,12.57,47.84626,-54.09684
2022-01-19 05:39:00+00:00,176.5865,2.45,12.57,47.84626,-54.09684
2022-01-19 05:49:00+00:00,185.3498,2.5,12.57,47.84626,-54.09684
2022-01-19 05:59:00+00:00,167.6332,2.5,12.57,47.84626,-54.09684
2022-01-19 06:09:00+00:00,156.5365,2.5,12.57,47.84626,-54.09684
2022-01-19 06:19:00+00:00,169.3565,2.52,12.57,47.84626,-54.09684
2022-01-19 06:29:00+00:00,182.2348,2.59,12.57,47.84626,-54.09684
2022-01-19 06:39:00+00:00,180.2665,2.6,12.57,47.84626,-54.09684
2022-01-19 06:49:00+00:00,183.3464,2.55,12.57,47.84626,-54.09684
2022-01-19 06:59:00+00:00,195.3264,2.59,12.57,47.84626,-54.09684
2022-01-19 07:09:00+00:00,197.3414,2.6,12.57,47.84626,-54.09684
2022-01-19 07:19:00+00:00,194.9131,2.6,12.57,47.84626,-54.09684
2022-01-19 07:29:00+00:00,199.1215,2.6,12.57,47.84626,-54.09684
2022-01-19 07:39:00+00:00,202.5365,2.64,12.57,47.84626,-54.09684
2022-01-19 07:49:00+00:00,199.9148,2.6,12.57,47.84626,-54.09684
2022-01-19 07:59:00+00:00,208.0664,2.65,12.57,47.84626,-54.09684
2022-01-19 08:09:00+00:00,220.5565,2.7,12.57,47.84626,-54.09684
2022-01-19 08:19:00+00:00,225.7314,2.7,12.57,47.84626,-54.09684
2022-01-19 08:29:00+00:00,225.8981,2.7,12.57,47.84626,-54.09684
2022-01-19 08:39:00+00:00,237.8798,2.7,12.57,47.84626,-54.09684
2022-01-19 08:49:00+00:00,250.2864,2.77,12.57,47.84626,-54.09684
2022-01-19 08:59:00+00:00,253.9048,2.8,12.57,47.84626,-54.09684
2022-01-19 09:09:00+00:00,251.9164,2.79,12.57,47.84626,-54.09684
2022-01-19 09:19:00+00:00,254.4548,2.77,12.57,47.84626,-54.09684
2022-01-19 09:29:00+00:00,261.3431,2.79,12.57,47.84626,-54.09684
2022-01-19 09:39:00+00:00,266.4514,2.8,12.57,47.84626,-54.09684
2022-01-19 09:49:00+00:00,276.2147,2.8,12.57,47.84626,-54.09684
2022-01-19 09:59:00+00:00,287.5598,2.8,12.57,47.84626,-54.09684
2022-01-19 10:09:00+00:00,291.3748,2.8,12.57,47.84626,-54.09684
2022-01-19 10:19:00+00:00,293.5597,2.8,12.57,47.84626,-54.09684
2022-01-19 10:29:00+00:00,306.9014,2.8,12.57,47.84626,-54.09684
2022-01-19 10:39:00+00:00,310.0079,2.8,12.57,47.84626,-54.09684
2022-01-19 10:49:00+00:00,310.608,2.8,12.57,47.84626,-54.09684
2022-01-19 10:59:00+00:00,317.603,2.8,12.57,47.84626,-54.09684
2022-01-19 11:09:00+00:00,326.6813,2.8,12.57,47.84626,-54.09684
2022-01-19 11:19:00+00:00,328.74300000000005,2.8,12.57,47.84626,-54.09684
2022-01-19 11:29:00+00:00,334.1114,2.8,12.57,47.84626,-54.09684
2022-01-19 11:39:00+00:00,342.7063,2.8,12.57,47.84626,-54.09684
2022-01-19 11:49:00+00:00,350.0446,2.8,12.57,47.84626,-54.09684
2022-01-19 11:59:00+00:00,359.0112,2.8,12.57,47.84626,-54.09684
2022-01-19 12:09:00+00:00,357.9696,2.8,12.57,47.84626,-54.09684
2022-01-19 12:19:00+00:00,358.793,2.8,12.57,47.84626,-54.09684
2022-01-19 12:29:00+00:00,366.3947,2.8,12.57,47.84626,-54.09684
2022-01-19 12:39:00+00:00,368.7662,2.7,12.57,47.84626,-54.09684
2022-01-19 12:49:00+00:00,366.6029,2.73,12.57,47.84626,-54.09684
2022-01-19 12:59:00+00:00,369.9979,2.8,12.57,47.84626,-54.09684
2022-01-19 13:09:00+00:00,372.5428,2.79,12.57,47.84626,-54.09684
2022-01-19 13:19:00+00:00,371.2645,2.77,12.65,47.84626,-54.09684
2022-01-19 13:29:00+00:00,377.7913,2.75,12.65,47.84626,-54.09684
2022-01-19 13:39:00+00:00,375.7662,2.8,12.65,47.84626,-54.09684
2022-01-19 13:49:00+00:00,369.0812,2.73,12.65,47.84626,-54.09684
2022-01-19 13:59:00+00:00,366.638,2.77,12.65,47.84626,-54.09684
2022-01-19 14:09:00+00:00,369.0212,2.79,12.65,47.84626,-54.09684
2022-01-19 14:19:00+00:00,367.153,2.79,12.89,47.84626,-54.09684
2022-01-19 14:29:00+00:00,364.5246,2.8,12.89,47.84626,-54.09684
2022-01-19 14:39:00+00:00,360.5963,2.78,12.89,47.84626,-54.09684
2022-01-19 14:49:00+00:00,353.4045,2.74,12.89,47.84626,-54.09684
2022-01-19 14:59:00+00:00,349.0279,2.7,12.89,47.84626,-54.09684
2022-01-19 15:09:00+00:00,347.2563,2.7,12.89,47.84626,-54.09684
2022-01-19 15:19:00+00:00,342.4363,2.7,12.89,47.84626,-54.09684
2022-01-19 15:29:00+00:00,328.093,2.7,12.89,47.84626,-54.09684
2022-01-19 15:39:00+00:00,323.2713,2.69,12.89,47.84626,-54.09684
2022-01-19 15:49:00+00:00,319.498,2.68,12.89,47.84626,-54.09684
2022-01-19 15:59:00+00:00,306.9797,2.6,12.89,47.84626,-54.09684
2022-01-19 16:09:00+00:00,302.3563,2.4,12.89,47.84626,-54.09684
2022-01-19 16:19:00+00:00,298.9447,2.47,12.97,47.84626,-54.09684
2022-01-19 16:29:00+00:00,289.603,2.61,12.97,47.84626,-54.09684
2022-01-19 16:39:00+00:00,278.493,2.63,12.97,47.84626,-54.09684
2022-01-19 16:49:00+00:00,278.5414,2.6,12.97,47.84626,-54.09684
2022-01-19 16:59:00+00:00,269.6664,2.64,12.97,47.84626,-54.09684
2022-01-19 17:09:00+00:00,249.6298,2.6,12.97,47.84626,-54.09684
2022-01-19 17:19:00+00:00,240.9497,2.6,12.97,47.84626,-54.09684
2022-01-19 17:29:00+00:00,245.7897,2.6,12.97,47.84626,-54.09684
2022-01-19 17:39:00+00:00,237.7381,2.6,12.97,47.84626,-54.09684
2022-01-19 17:49:00+00:00,220.0065,2.5,12.97,47.84626,-54.09684
2022-01-19 17:59:00+00:00,220.7914,2.5,12.97,47.84626,-54.09684
2022-01-19 18:09:00+00:00,228.1797,2.6,12.97,47.84626,-54.09684
2022-01-19 18:19:00+00:00,214.4381,2.6,12.89,47.84626,-54.09684
2022-01-19 18:29:00+00:00,206.5847,2.65,12.89,47.84626,-54.09684
2022-01-19 18:39:00+00:00,215.5998,2.7,12.89,47.84626,-54.09684
2022-01-19 18:49:00+00:00,213.583,2.62,12.89,47.84626,-54.09684
2022-01-19 18:59:00+00:00,205.7498,2.6,12.89,47.84626,-54.09684
2022-01-19 19:09:00+00:00,208.8581,2.67,12.89,47.84626,-54.09684
2022-01-19 19:19:00+00:00,212.8481,2.7,12.81,47.84626,-54.09684
2022-01-19 19:29:00+00:00,214.3631,2.7,12.81,47.84626,-54.09684
2022-01-19 19:39:00+00:00,220.6648,2.7,12.81,47.84626,-54.09684
2022-01-19 19:49:00+00:00,224.9965,2.7,12.81,47.84626,-54.09684
2022-01-19 19:59:00+00:00,224.2314,2.7,12.81,47.84626,-54.09684
2022-01-19 20:09:00+00:00,226.1964,2.7,12.81,47.84626,-54.09684
2022-01-19 20:19:00+00:00,230.9615,2.7,12.65,47.84626,-54.09684
2022-01-19 20:29:00+00:00,232.4447,2.7,12.65,47.84626,-54.09684
2022-01-19 20:39:00+00:00,235.1664,2.7,12.65,47.84626,-54.09684
2022-01-19 20:49:00+00:00,237.5497,2.7,12.65,47.84626,-54.09684
2022-01-19 20:59:00+00:00,237.6381,2.73,12.65,47.84626,-54.09684
2022-01-19 21:09:00+00:00,243.7731,2.75,12.65,47.84626,-54.09684
2022-01-19 21:19:00+00:00,255.6998,2.72,12.65,47.84626,-54.09684
2022-01-19 21:29:00+00:00,254.3798,2.7,12.65,47.84626,-54.09684
2022-01-19 21:39:00+00:00,254.5548,2.7,12.65,47.84626,-54.09684
2022-01-19 21:49:00+00:00,269.2564,2.7,12.65,47.84626,-54.09684
2022-01-19 21:59:00+00:00,272.9998,2.7,12.65,47.84626,-54.09684
2022-01-19 22:09:00+00:00,270.2097,2.61,12.65,47.84626,-54.09684
2022-01-19 22:19:00+00:00,279.8197,2.6,12.57,47.84626,-54.09684
2022-01-19 22:29:00+00:00,293.8497,2.4,12.57,47.84626,-54.09684
2022-01-19 22:39:00+00:00,294.6613,2.2,12.57,47.84626,-54.09684
2022-01-19 22:49:00+00:00,296.4797,2.26,12.57,47.84626,-54.09684
2022-01-19 22:59:00+00:00,308.3779,2.4,12.57,47.84626,-54.09684
2022-01-19 23:09:00+00:00,314.1947,2.48,12.57,47.84626,-54.09684
2022-01-19 23:19:00+00:00,317.4247,2.59,12.57,47.84626,-54.09684
2022-01-19 23:29:00+00:00,326.3363,2.4,12.57,47.84626,-54.09684
2022-01-19 23:39:00+00:00,333.6597,2.66,12.57,47.84626,-54.09684
2022-01-19 23:49:00+00:00,333.3729,2.6,12.57,47.84626,-54.09684
2022-01-19 23:59:00+00:00,340.0997,2.7,12.57,47.84626,-54.09684
